,,Stat5,,Stat1,,Stat2,,Stat3,,Stat4,,Wind1,,Wind1,
time,status,PA1M_AVG,status,PR1M_SUM,status,RH1M_AVG,status,SR1M_AVG,status,TA1M_AVG,status,W1dAve1m,status,W1sAve1m,
2001-12-08, 00:00:00,VALID,918.34,VALID,0,VALID,98.1641,VALID,-0.0509425,VALID,19.2882,VALID,1,VALID,0.786106,
2001-12-08, 00:01:00,VALID,918.34,VALID,0,VALID,98.2493,VALID,-0.0849042,VALID,19.3175,VALID,7,VALID,1.02969,
2001-12-08, 00:02:00,VALID,918.322,VALID,0,VALID,98.4108,VALID,-0.0679233,VALID,19.3754,VALID,12,VALID,1.01705,
2001-12-08, 00:03:00,VALID,918.299,VALID,0,VALID,98.4324,VALID,-0.0339617,VALID,19.3971,VALID,5,VALID,0.975535,
2001-12-08, 00:04:00,VALID,918.287,VALID,0,VALID,98.3815,VALID,-0.0339617,VALID,19.4209,VALID,7,VALID,0.880134,
2001-12-08, 00:05:00,VALID,918.278,VALID,0,VALID,98.4845,VALID,-0.0339617,VALID,19.4532,VALID,2,VALID,0.8125,
2001-12-08, 00:06:00,VALID,918.255,VALID,0,VALID,98.5315,VALID,-0.0509425,VALID,19.4882,VALID,7,VALID,0.675576,
2001-12-08, 00:07:00,VALID,918.241,VALID,0,VALID,98.4998,VALID,-0.0169808,VALID,19.5042,VALID,354,VALID,0.610937,
2001-12-08, 00:08:00,VALID,918.225,VALID,0,VALID,98.5048,VALID,-0.0339617,VALID,19.5235,VALID,349,VALID,0.623698,
2001-12-08, 00:09:00,VALID,918.215,VALID,0,VALID,98.4718,VALID,-0.0169808,VALID,19.5593,VALID,2,VALID,0.614654,
2001-12-08, 00:10:00,VALID,918.201,VALID,0,VALID,98.4718,VALID,0,VALID,19.5658,VALID,358,VALID,0.539274,
2001-12-08, 00:11:00,VALID,918.179,VALID,0,VALID,98.4387,VALID,-0.0679233,VALID,19.5819,VALID,5,VALID,0.258502,
2001-12-08, 00:12:00,VALID,918.155,VALID,0,VALID,98.4069,VALID,-0.0169808,VALID,19.5886,VALID,23,VALID,0.447516,
2001-12-08, 00:13:00,VALID,918.148,VALID,0,VALID,98.3573,VALID,-0.0169808,VALID,19.5951,VALID,22,VALID,0.443576,
2001-12-08, 00:14:00,VALID,918.151,VALID,0,VALID,98.2734,VALID,-0.0339617,VALID,19.5814,VALID,17,VALID,0.272059,
2001-12-08, 00:15:00,VALID,918.155,VALID,0,VALID,98.131,VALID,-0.0169808,VALID,19.5531,VALID,17,VALID,0,
2001-12-08, 00:16:00,VALID,918.155,VALID,0,VALID,98.1297,VALID,-0.0339617,VALID,19.5464,VALID,16,VALID,0,
2001-12-08, 00:17:00,VALID,918.16,VALID,0,VALID,98.0356,VALID,-0.0339617,VALID,19.5268,VALID,1,VALID,0.0900735,
2001-12-08, 00:18:00,VALID,918.166,VALID,0,VALID,98.0229,VALID,-0.0339617,VALID,19.5173,VALID,330,VALID,0.131757,
2001-12-08, 00:19:00,VALID,918.167,VALID,0,VALID,98.1094,VALID,-0.0169808,VALID,19.5434,VALID,336,VALID,0.0102679,
2001-12-08, 00:20:00,VALID,918.164,VALID,0,VALID,98.0458,VALID,-0.0679233,VALID,19.5332,VALID,336,VALID,0.0151515,
2001-12-08, 00:21:00,VALID,918.187,VALID,0,VALID,98.0725,VALID,-0.0339617,VALID,19.5434,VALID,312,VALID,0.0954392,
2001-12-08, 00:22:00,VALID,918.19,VALID,0,VALID,98.1615,VALID,-0.0169808,VALID,19.5628,VALID,323,VALID,0.174409,
2001-12-08, 00:23:00,VALID,918.206,VALID,0,VALID,98.145,VALID,-0.0339617,VALID,19.5722,VALID,323,VALID,0,
2001-12-08, 00:24:00,VALID,918.208,VALID,0,VALID,98.2213,VALID,0,VALID,19.6013,VALID,323,VALID,0,
2001-12-08, 00:25:00,VALID,918.22,VALID,0,VALID,98.1984,VALID,-0.0679233,VALID,19.6011,VALID,323,VALID,0,
2001-12-08, 00:26:00,VALID,918.227,VALID,0,VALID,98.1641,VALID,-0.0679233,VALID,19.6018,VALID,323,VALID,0,
2001-12-08, 00:27:00,VALID,918.257,VALID,0,VALID,98.1374,VALID,-0.0339617,VALID,19.5949,VALID,323,VALID,0,
2001-12-08, 00:28:00,VALID,918.259,VALID,0,VALID,98.1259,VALID,-0.0169808,VALID,19.5953,VALID,323,VALID,0,
2001-12-08, 00:29:00,VALID,918.263,VALID,0,VALID,98.1577,VALID,-0.0169808,VALID,19.6048,VALID,323,VALID,0,
2001-12-08, 00:30:00,VALID,918.24,VALID,0,VALID,98.1208,VALID,-0.0509425,VALID,19.5911,VALID,338,VALID,0,
2001-12-08, 00:31:00,VALID,918.228,VALID,0,VALID,97.8907,VALID,-0.0679233,VALID,19.533,VALID,354,VALID,0,
2001-12-08, 00:32:00,VALID,918.213,VALID,0,VALID,97.7533,VALID,-0.0169808,VALID,19.485,VALID,354,VALID,0,
2001-12-08, 00:33:00,VALID,918.189,VALID,0,VALID,97.7711,VALID,-0.0509425,VALID,19.449,VALID,354,VALID,0,
2001-12-08, 00:34:00,VALID,918.162,VALID,0,VALID,97.939,VALID,-0.0339617,VALID,19.4917,VALID,354,VALID,0.000651042,
2001-12-08, 00:35:00,VALID,918.158,VALID,0,VALID,98.1552,VALID,-0.0339617,VALID,19.5457,VALID,344,VALID,0.237822,
2001-12-08, 00:36:00,VALID,918.136,VALID,0,VALID,98.2632,VALID,-0.0339617,VALID,19.5981,VALID,351,VALID,0.30511,
2001-12-08, 00:37:00,VALID,918.117,VALID,0,VALID,98.2772,VALID,0,VALID,19.6078,VALID,16,VALID,0.0245536,
2001-12-08, 00:38:00,VALID,918.092,VALID,0,VALID,98.2645,VALID,-0.0169808,VALID,19.614,VALID,16,VALID,0.162169,
2001-12-08, 00:39:00,VALID,918.071,VALID,0,VALID,98.2238,VALID,-0.0339617,VALID,19.6209,VALID,16,VALID,0.270481,
2001-12-08, 00:40:00,VALID,918.033,VALID,0,VALID,98.2035,VALID,-0.0339617,VALID,19.6132,VALID,16,VALID,0.345228,
2001-12-08, 00:41:00,VALID,918.018,VALID,0,VALID,98.1641,VALID,-0.0169808,VALID,19.6132,VALID,18,VALID,0.516572,
2001-12-08, 00:42:00,VALID,917.996,VALID,0,VALID,98.0827,VALID,-0.0169808,VALID,19.6108,VALID,18,VALID,0.462457,
2001-12-08, 00:43:00,VALID,917.986,VALID,0,VALID,98.0064,VALID,-0.0169808,VALID,19.604,VALID,18,VALID,0.330729,
2001-12-08, 00:44:00,VALID,917.954,VALID,0,VALID,98.0267,VALID,0,VALID,19.6339,VALID,30,VALID,0.379825,
2001-12-08, 00:45:00,VALID,917.943,VALID,0,VALID,97.9937,VALID,0,VALID,19.6366,VALID,42,VALID,0.34734,
2001-12-08, 00:46:00,VALID,917.938,VALID,0,VALID,97.9733,VALID,0,VALID,19.6624,VALID,43,VALID,0.479688,
2001-12-08, 00:47:00,VALID,917.934,VALID,0,VALID,97.9314,VALID,-0.0169808,VALID,19.6851,VALID,34,VALID,0.450521,
2001-12-08, 00:48:00,VALID,917.895,VALID,0,VALID,97.8423,VALID,-0.0679233,VALID,19.7139,VALID,33,VALID,0.398649,
2001-12-08, 00:49:00,VALID,917.884,VALID,0,VALID,97.7393,VALID,-0.0849042,VALID,19.7435,VALID,29,VALID,0.447635,
2001-12-08, 00:50:00,VALID,917.859,VALID,0,VALID,97.5779,VALID,-0.0169808,VALID,19.743,VALID,20,VALID,0.473722,
2001-12-08, 00:51:00,VALID,917.848,VALID,0,VALID,97.4354,VALID,-0.0169808,VALID,19.743,VALID,29,VALID,0.687066,
2001-12-08, 00:52:00,VALID,917.84,VALID,0,VALID,97.321,VALID,-0.0169808,VALID,19.7489,VALID,30,VALID,0.584635,
2001-12-08, 00:53:00,VALID,917.847,VALID,0,VALID,97.1786,VALID,0,VALID,19.7753,VALID,23,VALID,0.0981158,
2001-12-08, 00:54:00,VALID,917.847,VALID,0,VALID,97.0781,VALID,0,VALID,19.775,VALID,23,VALID,0,
2001-12-08, 00:55:00,VALID,917.85,VALID,0,VALID,97.0056,VALID,0,VALID,19.7914,VALID,11,VALID,0,
2001-12-08, 00:56:00,VALID,917.833,VALID,0,VALID,96.923,VALID,-0.0339617,VALID,19.7974,VALID,3,VALID,0.0840436,
2001-12-08, 00:57:00,VALID,917.816,VALID,0,VALID,96.8111,VALID,-0.0169808,VALID,19.817,VALID,28,VALID,0.301098,
2001-12-08, 00:58:00,VALID,917.776,VALID,0,VALID,96.7119,VALID,-0.0339617,VALID,19.817,VALID,29,VALID,0.379434,
2001-12-08, 00:59:00,VALID,917.765,VALID,0,VALID,96.5987,VALID,0,VALID,19.8332,VALID,31,VALID,0.247869,
2001-12-08, 01:00:00,VALID,917.766,VALID,0,VALID,96.5008,VALID,0,VALID,19.8461,VALID,32,VALID,0.0759549,
2001-12-08, 01:01:00,VALID,917.768,VALID,0,VALID,96.4321,VALID,-0.0169808,VALID,19.8528,VALID,32,VALID,0,
2001-12-08, 01:02:00,VALID,917.776,VALID,0,VALID,96.3558,VALID,-0.0509425,VALID,19.862,VALID,32,VALID,0,
2001-12-08, 01:03:00,VALID,917.769,VALID,0,VALID,96.394,VALID,0,VALID,19.8881,VALID,32,VALID,0,
2001-12-08, 01:04:00,VALID,917.759,VALID,0,VALID,96.3457,VALID,0,VALID,19.9037,VALID,32,VALID,0,
2001-12-08, 01:05:00,VALID,917.754,VALID,0,VALID,96.2897,VALID,0,VALID,19.9211,VALID,32,VALID,0,
2001-12-08, 01:06:00,VALID,917.749,VALID,0,VALID,96.3037,VALID,0,VALID,19.9169,VALID,32,VALID,0,
2001-12-08, 01:07:00,VALID,917.767,VALID,0,VALID,96.2388,VALID,0,VALID,19.9035,VALID,32,VALID,0,
2001-12-08, 01:08:00,VALID,917.764,VALID,0,VALID,96.2465,VALID,0,VALID,19.9167,VALID,32,VALID,0,
2001-12-08, 01:09:00,VALID,917.772,VALID,0,VALID,96.2427,VALID,0,VALID,19.9234,VALID,32,VALID,0,
2001-12-08, 01:10:00,VALID,917.773,VALID,0,VALID,96.2147,VALID,0,VALID,19.9139,VALID,32,VALID,0,
2001-12-08, 01:11:00,VALID,917.773,VALID,0,VALID,96.146,VALID,0,VALID,19.9169,VALID,32,VALID,0,
2001-12-08, 01:12:00,VALID,917.771,VALID,0,VALID,96.1015,VALID,-0.0169808,VALID,19.9206,VALID,32,VALID,0,
2001-12-08, 01:13:00,VALID,917.772,VALID,0,VALID,95.9197,VALID,0,VALID,19.904,VALID,32,VALID,0,
2001-12-08, 01:14:00,VALID,917.768,VALID,0,VALID,95.7442,VALID,-0.0169808,VALID,19.898,VALID,32,VALID,0,
2001-12-08, 01:15:00,VALID,917.739,VALID,0,VALID,95.7277,VALID,0,VALID,19.901,VALID,32,VALID,0,
2001-12-08, 01:16:00,VALID,917.731,VALID,0,VALID,95.7417,VALID,-0.0169808,VALID,19.9105,VALID,32,VALID,0,
2001-12-08, 01:17:00,VALID,917.686,VALID,0,VALID,95.5446,VALID,-0.0169808,VALID,19.9035,VALID,32,VALID,0,
2001-12-08, 01:18:00,VALID,917.686,VALID,0,VALID,95.4797,VALID,-0.0169808,VALID,19.9035,VALID,32,VALID,0,
2001-12-08, 01:19:00,VALID,917.655,VALID,0,VALID,95.4555,VALID,0,VALID,19.9269,VALID,31,VALID,0,
2001-12-08, 01:20:00,VALID,917.652,VALID,0,VALID,95.6285,VALID,0,VALID,19.9559,VALID,31,VALID,0,
2001-12-08, 01:21:00,VALID,917.639,VALID,0,VALID,95.7366,VALID,-0.0169808,VALID,19.9713,VALID,31,VALID,0,
2001-12-08, 01:22:00,VALID,917.602,VALID,0,VALID,95.7811,VALID,0,VALID,19.9609,VALID,31,VALID,0,
2001-12-08, 01:23:00,VALID,917.561,VALID,0,VALID,95.7111,VALID,0,VALID,19.9716,VALID,31,VALID,0,
2001-12-08, 01:24:00,VALID,917.535,VALID,0,VALID,95.5954,VALID,0,VALID,19.9388,VALID,31,VALID,0,
2001-12-08, 01:25:00,VALID,917.511,VALID,0,VALID,95.6425,VALID,-0.0169808,VALID,19.9395,VALID,31,VALID,0.00316723,
2001-12-08, 01:26:00,VALID,917.469,VALID,0,VALID,95.6043,VALID,0,VALID,19.9231,VALID,31,VALID,0,
2001-12-08, 01:27:00,VALID,917.467,VALID,0,VALID,95.5878,VALID,0,VALID,19.8935,VALID,31,VALID,0,
2001-12-08, 01:28:00,VALID,917.444,VALID,0,VALID,95.598,VALID,-0.0169808,VALID,19.8709,VALID,31,VALID,0,
2001-12-08, 01:29:00,VALID,917.433,VALID,0,VALID,95.6056,VALID,0,VALID,19.862,VALID,31,VALID,0,
2001-12-08, 01:30:00,VALID,917.42,VALID,0,VALID,95.6208,VALID,0,VALID,19.826,VALID,31,VALID,0,
2001-12-08, 01:31:00,VALID,917.412,VALID,0,VALID,95.6221,VALID,0,VALID,19.7872,VALID,31,VALID,0,
2001-12-08, 01:32:00,VALID,917.42,VALID,0,VALID,95.7633,VALID,0,VALID,19.7551,VALID,31,VALID,0,
2001-12-08, 01:33:00,VALID,917.424,VALID,0,VALID,95.8726,VALID,0,VALID,19.7293,VALID,31,VALID,0,
2001-12-08, 01:34:00,VALID,917.427,VALID,0,VALID,96.0061,VALID,0,VALID,19.7325,VALID,31,VALID,0,
2001-12-08, 01:35:00,VALID,917.414,VALID,0,VALID,96.0786,VALID,0,VALID,19.7199,VALID,31,VALID,0,
2001-12-08, 01:36:00,VALID,917.418,VALID,0,VALID,96.1358,VALID,0.0169808,VALID,19.7099,VALID,31,VALID,0,
2001-12-08, 01:37:00,VALID,917.412,VALID,0,VALID,96.1676,VALID,0,VALID,19.6928,VALID,31,VALID,0,
2001-12-08, 01:38:00,VALID,917.411,VALID,0,VALID,96.1943,VALID,0.0169808,VALID,19.6905,VALID,31,VALID,0,
2001-12-08, 01:39:00,VALID,917.403,VALID,0,VALID,96.2414,VALID,0,VALID,19.6808,VALID,31,VALID,0,
2001-12-08, 01:40:00,VALID,917.427,VALID,0,VALID,96.2592,VALID,0,VALID,19.6649,VALID,31,VALID,0,
2001-12-08, 01:41:00,VALID,917.436,VALID,0,VALID,96.3126,VALID,0,VALID,19.6485,VALID,31,VALID,0,
2001-12-08, 01:42:00,VALID,917.438,VALID,0,VALID,96.3533,VALID,0,VALID,19.6321,VALID,31,VALID,0,
2001-12-08, 01:43:00,VALID,917.435,VALID,0,VALID,96.455,VALID,0,VALID,19.6227,VALID,31,VALID,0,
2001-12-08, 01:44:00,VALID,917.415,VALID,0,VALID,96.5529,VALID,0,VALID,19.606,VALID,31,VALID,0,
2001-12-08, 01:45:00,VALID,917.392,VALID,0,VALID,96.572,VALID,0,VALID,19.6001,VALID,30,VALID,0,
2001-12-08, 01:46:00,VALID,917.394,VALID,0,VALID,96.5962,VALID,0,VALID,19.5708,VALID,30,VALID,0,
2001-12-08, 01:47:00,VALID,917.377,VALID,0,VALID,96.6788,VALID,0,VALID,19.5613,VALID,30,VALID,0,
2001-12-08, 01:48:00,VALID,917.384,VALID,0,VALID,96.7182,VALID,0,VALID,19.5417,VALID,30,VALID,0,
2001-12-08, 01:49:00,VALID,917.39,VALID,0,VALID,96.764,VALID,0,VALID,19.5285,VALID,30,VALID,0,
2001-12-08, 01:50:00,VALID,917.397,VALID,0,VALID,96.8251,VALID,0,VALID,19.5288,VALID,30,VALID,0,
2001-12-08, 01:51:00,VALID,917.382,VALID,0,VALID,96.8403,VALID,0,VALID,19.5064,VALID,30,VALID,0,
2001-12-08, 01:52:00,VALID,917.374,VALID,0,VALID,96.8632,VALID,0,VALID,19.4999,VALID,30,VALID,0,
2001-12-08, 01:53:00,VALID,917.367,VALID,0,VALID,96.956,VALID,0,VALID,19.4833,VALID,30,VALID,0,
2001-12-08, 01:54:00,VALID,917.358,VALID,0,VALID,97.0629,VALID,0.0169808,VALID,19.4773,VALID,22,VALID,0,
2001-12-08, 01:55:00,VALID,917.354,VALID,0,VALID,97.2269,VALID,0.0169808,VALID,19.4714,VALID,331,VALID,0,
2001-12-08, 01:56:00,VALID,917.345,VALID,0,VALID,97.3324,VALID,0,VALID,19.4614,VALID,330,VALID,0.051011,
2001-12-08, 01:57:00,VALID,917.333,VALID,0,VALID,97.3617,VALID,0.0169808,VALID,19.4453,VALID,328,VALID,0.019848,
2001-12-08, 01:58:00,VALID,917.339,VALID,0,VALID,97.3947,VALID,0,VALID,19.413,VALID,328,VALID,0,
2001-12-08, 01:59:00,VALID,917.336,VALID,0,VALID,97.4367,VALID,0,VALID,19.3901,VALID,328,VALID,0,
2001-12-08, 02:00:00,VALID,917.32,VALID,0,VALID,97.5003,VALID,0,VALID,19.3774,VALID,296,VALID,0,
2001-12-08, 02:01:00,VALID,917.309,VALID,0,VALID,97.5359,VALID,0,VALID,19.3511,VALID,182,VALID,0.179054,
2001-12-08, 02:02:00,VALID,917.297,VALID,0,VALID,97.5956,VALID,0.0169808,VALID,19.335,VALID,182,VALID,0.34517,
2001-12-08, 02:03:00,VALID,917.284,VALID,0,VALID,97.6859,VALID,0,VALID,19.329,VALID,182,VALID,0.286241,
2001-12-08, 02:04:00,VALID,917.255,VALID,0,VALID,97.7597,VALID,0.0169808,VALID,19.3121,VALID,182,VALID,0.0766059,
2001-12-08, 02:05:00,VALID,917.225,VALID,0,VALID,97.8106,VALID,0,VALID,19.2999,VALID,181,VALID,0.173024,
2001-12-08, 02:06:00,VALID,917.202,VALID,0,VALID,97.663,VALID,-0.0509425,VALID,19.2723,VALID,180,VALID,0.0441301,
2001-12-08, 02:07:00,VALID,917.168,VALID,0,VALID,97.6986,VALID,-0.101885,VALID,19.2333,VALID,180,VALID,0,
2001-12-08, 02:08:00,VALID,917.146,VALID,0,VALID,97.6262,VALID,-0.0679233,VALID,19.2072,VALID,158,VALID,0,
2001-12-08, 02:09:00,VALID,917.14,VALID,0,VALID,97.5054,VALID,-0.101885,VALID,19.1461,VALID,68,VALID,0,
2001-12-08, 02:10:00,VALID,917.121,VALID,0,VALID,97.7851,VALID,-0.0679233,VALID,19.1463,VALID,68,VALID,0,
2001-12-08, 02:11:00,VALID,917.119,VALID,0,VALID,97.9339,VALID,-0.0679233,VALID,19.1692,VALID,68,VALID,0,
2001-12-08, 02:12:00,VALID,917.12,VALID,0,VALID,98.014,VALID,-0.101885,VALID,19.1719,VALID,68,VALID,0,
2001-12-08, 02:13:00,VALID,917.124,VALID,0,VALID,98.0827,VALID,-0.0849042,VALID,19.1816,VALID,68,VALID,0,
2001-12-08, 02:14:00,VALID,917.123,VALID,0,VALID,98.1602,VALID,-0.0679233,VALID,19.2112,VALID,68,VALID,0,
2001-12-08, 02:15:00,VALID,917.106,VALID,0,VALID,98.2048,VALID,-0.0849042,VALID,19.2079,VALID,42,VALID,0,
2001-12-08, 02:16:00,VALID,917.096,VALID,0,VALID,98.234,VALID,-0.0849042,VALID,19.2107,VALID,34,VALID,0,
2001-12-08, 02:17:00,VALID,917.104,VALID,0,VALID,98.2505,VALID,-0.101885,VALID,19.2303,VALID,34,VALID,0,
2001-12-08, 02:18:00,VALID,917.098,VALID,0,VALID,98.2505,VALID,-0.101885,VALID,19.2368,VALID,34,VALID,0,
2001-12-08, 02:19:00,VALID,917.09,VALID,0,VALID,98.2785,VALID,-0.101885,VALID,19.2564,VALID,34,VALID,0,
2001-12-08, 02:20:00,VALID,917.079,VALID,0,VALID,98.2836,VALID,-0.0339617,VALID,19.2716,VALID,34,VALID,0,
2001-12-08, 02:21:00,VALID,917.079,VALID,0,VALID,98.1984,VALID,0.0169808,VALID,19.2676,VALID,34,VALID,0,
2001-12-08, 02:22:00,VALID,917.056,VALID,0,VALID,98.0738,VALID,0.0509425,VALID,19.2348,VALID,34,VALID,0,
2001-12-08, 02:23:00,VALID,917.032,VALID,0,VALID,97.9962,VALID,0,VALID,19.206,VALID,34,VALID,0,
2001-12-08, 02:24:00,VALID,917.007,VALID,0,VALID,98.1221,VALID,0,VALID,19.2157,VALID,34,VALID,0,
2001-12-08, 02:25:00,VALID,916.985,VALID,0,VALID,98.1984,VALID,0.0339617,VALID,19.2614,VALID,34,VALID,0,
2001-12-08, 02:26:00,VALID,916.975,VALID,0,VALID,98.1933,VALID,0.0169808,VALID,19.2738,VALID,34,VALID,0,
2001-12-08, 02:27:00,VALID,916.967,VALID,0,VALID,98.1005,VALID,0,VALID,19.2646,VALID,34,VALID,0,
2001-12-08, 02:28:00,VALID,916.95,VALID,0,VALID,98.1386,VALID,0,VALID,19.2939,VALID,34,VALID,0,
2001-12-08, 02:29:00,VALID,916.941,VALID,0,VALID,98.1132,VALID,0.0169808,VALID,19.2974,VALID,34,VALID,0,
2001-12-08, 02:30:00,VALID,916.909,VALID,0,VALID,98.0585,VALID,0.0169808,VALID,19.287,VALID,34,VALID,0,
2001-12-08, 02:31:00,VALID,916.895,VALID,0,VALID,98.0394,VALID,0.0169808,VALID,19.2801,VALID,31,VALID,0,
2001-12-08, 02:32:00,VALID,916.874,VALID,0,VALID,98.0992,VALID,0,VALID,19.3158,VALID,31,VALID,0,
2001-12-08, 02:33:00,VALID,916.861,VALID,0,VALID,98.0433,VALID,0.0169808,VALID,19.3128,VALID,31,VALID,0,
2001-12-08, 02:34:00,VALID,916.85,VALID,0,VALID,97.9542,VALID,0.0679233,VALID,19.2994,VALID,31,VALID,0,
2001-12-08, 02:35:00,VALID,916.846,VALID,0,VALID,97.8462,VALID,0.0169808,VALID,19.2738,VALID,29,VALID,0,
2001-12-08, 02:36:00,VALID,916.848,VALID,0,VALID,97.9733,VALID,0.0169808,VALID,19.3233,VALID,25,VALID,0,
2001-12-08, 02:37:00,VALID,916.837,VALID,0,VALID,98.028,VALID,0,VALID,19.3484,VALID,20,VALID,0.00506757,
2001-12-08, 02:38:00,VALID,916.827,VALID,0,VALID,97.986,VALID,0,VALID,19.3618,VALID,230,VALID,0.111979,
2001-12-08, 02:39:00,VALID,916.802,VALID,0,VALID,97.967,VALID,0,VALID,19.3645,VALID,228,VALID,0,
2001-12-08, 02:40:00,VALID,916.778,VALID,0,VALID,97.9759,VALID,0,VALID,19.3782,VALID,228,VALID,0,
2001-12-08, 02:41:00,VALID,916.75,VALID,0,VALID,97.9542,VALID,0.0169808,VALID,19.3747,VALID,228,VALID,0,
2001-12-08, 02:42:00,VALID,916.732,VALID,0,VALID,97.9695,VALID,0,VALID,19.371,VALID,228,VALID,0,
2001-12-08, 02:43:00,VALID,916.734,VALID,0,VALID,97.967,VALID,0,VALID,19.371,VALID,228,VALID,0,
2001-12-08, 02:44:00,VALID,916.724,VALID,0,VALID,97.9631,VALID,0,VALID,19.3648,VALID,228,VALID,0,
2001-12-08, 02:45:00,VALID,916.714,VALID,0,VALID,97.9555,VALID,0.0339617,VALID,19.3514,VALID,228,VALID,0,
2001-12-08, 02:46:00,VALID,916.714,VALID,0,VALID,97.9581,VALID,0.0169808,VALID,19.3449,VALID,228,VALID,0,
2001-12-08, 02:47:00,VALID,916.705,VALID,0,VALID,97.9606,VALID,0.0169808,VALID,19.3419,VALID,228,VALID,0,
2001-12-08, 02:48:00,VALID,916.701,VALID,0,VALID,97.9809,VALID,0,VALID,19.3424,VALID,226,VALID,0,
2001-12-08, 02:49:00,VALID,916.681,VALID,0,VALID,97.9898,VALID,-0.0169808,VALID,19.3297,VALID,200,VALID,0,
2001-12-08, 02:50:00,VALID,916.619,VALID,0,VALID,97.9263,VALID,0,VALID,19.3103,VALID,200,VALID,0,
2001-12-08, 02:51:00,VALID,916.603,VALID,0,VALID,97.7699,VALID,-0.0169808,VALID,19.2549,VALID,318,VALID,0,
2001-12-08, 02:52:00,VALID,916.59,VALID,0,VALID,97.7063,VALID,-0.0169808,VALID,19.2035,VALID,19,VALID,0.0819196,
2001-12-08, 02:53:00,VALID,916.588,VALID,0,VALID,97.747,VALID,0,VALID,19.1908,VALID,17,VALID,0.115294,
2001-12-08, 02:54:00,VALID,916.572,VALID,0,VALID,97.8309,VALID,0.0169808,VALID,19.1844,VALID,23,VALID,0.674831,
2001-12-08, 02:55:00,VALID,916.554,VALID,0,VALID,98.0013,VALID,0,VALID,19.1899,VALID,24,VALID,0.517525,
2001-12-08, 02:56:00,VALID,916.543,VALID,0,VALID,98.0928,VALID,0,VALID,19.2197,VALID,24,VALID,0.370028,
2001-12-08, 02:57:00,VALID,916.536,VALID,0,VALID,98.0661,VALID,-0.0339617,VALID,19.2065,VALID,20,VALID,0.626519,
2001-12-08, 02:58:00,VALID,916.514,VALID,0,VALID,98.0661,VALID,0,VALID,19.2132,VALID,22,VALID,0.878906,
2001-12-08, 02:59:00,VALID,916.506,VALID,0,VALID,98.1145,VALID,-0.0339617,VALID,19.2134,VALID,19,VALID,0.741498,
2001-12-08, 03:00:00,VALID,916.502,VALID,0,VALID,98.1323,VALID,0,VALID,19.2331,VALID,26,VALID,0.744299,
2001-12-08, 03:01:00,VALID,916.507,VALID,0,VALID,98.117,VALID,0,VALID,19.2164,VALID,15,VALID,0.985714,
2001-12-08, 03:02:00,VALID,916.5,VALID,0,VALID,98.1513,VALID,0,VALID,19.2261,VALID,22,VALID,0.818892,
2001-12-08, 03:03:00,VALID,916.507,VALID,0,VALID,98.2175,VALID,0,VALID,19.2423,VALID,17,VALID,0.754645,
2001-12-08, 03:04:00,VALID,916.509,VALID,0,VALID,98.234,VALID,0.0169808,VALID,19.2746,VALID,13,VALID,0.611909,
2001-12-08, 03:05:00,VALID,916.515,VALID,0,VALID,98.22,VALID,0,VALID,19.2743,VALID,14,VALID,0.605114,
2001-12-08, 03:06:00,VALID,916.49,VALID,0,VALID,98.1869,VALID,-0.0339617,VALID,19.284,VALID,10,VALID,0.749132,
2001-12-08, 03:07:00,VALID,916.481,VALID,0,VALID,98.2772,VALID,-0.0169808,VALID,19.323,VALID,341,VALID,0.765408,
2001-12-08, 03:08:00,VALID,916.482,VALID,0,VALID,98.2378,VALID,0.0169808,VALID,19.3419,VALID,10,VALID,0.595818,
2001-12-08, 03:09:00,VALID,916.477,VALID,0,VALID,98.2009,VALID,0,VALID,19.3379,VALID,9,VALID,0.746199,
2001-12-08, 03:10:00,VALID,916.471,VALID,0,VALID,98.1971,VALID,0,VALID,19.3715,VALID,2,VALID,0.673437,
2001-12-08, 03:11:00,VALID,916.469,VALID,0,VALID,98.1717,VALID,0.0169808,VALID,19.3814,VALID,1,VALID,0.598485,
2001-12-08, 03:12:00,VALID,916.428,VALID,0,VALID,98.1819,VALID,0,VALID,19.3869,VALID,7,VALID,0.552365,
2001-12-08, 03:13:00,VALID,916.383,VALID,0,VALID,98.131,VALID,-0.0169808,VALID,19.4072,VALID,23,VALID,1.144,
2001-12-08, 03:14:00,VALID,916.35,VALID,0,VALID,98.1361,VALID,0,VALID,19.4072,VALID,13,VALID,0.880208,
2001-12-08, 03:15:00,VALID,916.321,VALID,0,VALID,98.0547,VALID,-0.0169808,VALID,19.3971,VALID,351,VALID,0.63151,
2001-12-08, 03:16:00,VALID,916.301,VALID,0,VALID,98.0992,VALID,0,VALID,19.4107,VALID,354,VALID,0.505208,
2001-12-08, 03:17:00,VALID,916.286,VALID,0,VALID,98.1132,VALID,0,VALID,19.4135,VALID,346,VALID,0.748162,
2001-12-08, 03:18:00,VALID,916.276,VALID,0,VALID,98.131,VALID,0,VALID,19.4199,VALID,18,VALID,1.26668,
2001-12-08, 03:19:00,VALID,916.258,VALID,0,VALID,98.1157,VALID,0,VALID,19.4261,VALID,11,VALID,0.776116,
2001-12-08, 03:20:00,VALID,916.246,VALID,0,VALID,98.0827,VALID,0,VALID,19.4299,VALID,14,VALID,0.868845,
2001-12-08, 03:21:00,VALID,916.223,VALID,0,VALID,98.0458,VALID,0,VALID,19.4264,VALID,3,VALID,1.15034,
2001-12-08, 03:22:00,VALID,916.211,VALID,0,VALID,98,VALID,0,VALID,19.407,VALID,11,VALID,0.51837,
2001-12-08, 03:23:00,VALID,916.206,VALID,0,VALID,98.0369,VALID,0,VALID,19.4137,VALID,349,VALID,0.942235,
2001-12-08, 03:24:00,VALID,916.2,VALID,0,VALID,98.0572,VALID,0,VALID,19.4102,VALID,346,VALID,1.15299,
2001-12-08, 03:25:00,VALID,916.206,VALID,0,VALID,98.1285,VALID,0,VALID,19.4264,VALID,344,VALID,0.728082,
2001-12-08, 03:26:00,VALID,916.213,VALID,0,VALID,98.0916,VALID,0,VALID,19.4234,VALID,1,VALID,0.476103,
2001-12-08, 03:27:00,VALID,916.193,VALID,0,VALID,98.0394,VALID,0,VALID,19.4132,VALID,356,VALID,0.623733,
2001-12-08, 03:28:00,VALID,916.174,VALID,0,VALID,97.9746,VALID,-0.0169808,VALID,19.3911,VALID,350,VALID,0.998214,
2001-12-08, 03:29:00,VALID,916.154,VALID,0,VALID,97.9898,VALID,0.0169808,VALID,19.3745,VALID,333,VALID,1.06345,
2001-12-08, 03:30:00,VALID,916.138,VALID,0,VALID,97.9733,VALID,0,VALID,19.3392,VALID,314,VALID,0.710726,
2001-12-08, 03:31:00,VALID,916.153,VALID,0,VALID,97.9987,VALID,0,VALID,19.3029,VALID,336,VALID,0.499367,
2001-12-08, 03:32:00,VALID,916.16,VALID,0,VALID,98.0496,VALID,0,VALID,19.2969,VALID,360,VALID,0.380208,
2001-12-08, 03:33:00,VALID,916.144,VALID,0,VALID,98.0509,VALID,0,VALID,19.2711,VALID,344,VALID,0.470269,
2001-12-08, 03:34:00,VALID,916.143,VALID,0,VALID,98.0445,VALID,0,VALID,19.2455,VALID,10,VALID,0.252604,
2001-12-08, 03:35:00,VALID,916.156,VALID,0,VALID,98.0407,VALID,0,VALID,19.2067,VALID,350,VALID,0.363971,
2001-12-08, 03:36:00,VALID,916.162,VALID,0,VALID,98.1552,VALID,-0.0169808,VALID,19.207,VALID,313,VALID,0.227829,
2001-12-08, 03:37:00,VALID,916.173,VALID,0,VALID,98.2353,VALID,0,VALID,19.2137,VALID,312,VALID,0.134375,
2001-12-08, 03:38:00,VALID,916.187,VALID,0,VALID,98.2849,VALID,0,VALID,19.21,VALID,312,VALID,0.0416667,
2001-12-08, 03:39:00,VALID,916.199,VALID,0,VALID,98.2899,VALID,-0.0169808,VALID,19.2008,VALID,312,VALID,0,
2001-12-08, 03:40:00,VALID,916.201,VALID,0,VALID,98.2607,VALID,0,VALID,19.1645,VALID,315,VALID,0.0673564,
2001-12-08, 03:41:00,VALID,916.198,VALID,0,VALID,98.2836,VALID,0,VALID,19.1488,VALID,339,VALID,0.327415,
2001-12-08, 03:42:00,VALID,916.186,VALID,0,VALID,98.3993,VALID,-0.0169808,VALID,19.1548,VALID,6,VALID,0.71658,
2001-12-08, 03:43:00,VALID,916.157,VALID,0,VALID,98.4451,VALID,0,VALID,19.1712,VALID,7,VALID,1.13542,
2001-12-08, 03:44:00,VALID,916.146,VALID,0,VALID,98.4921,VALID,-0.0169808,VALID,19.2037,VALID,334,VALID,1.05331,